Location: SBMNH
(34.4407°N, 119.7157°W)
Time: 16:51:52
(UTC-07:00)

Hubble Space Telescope - Visible Passes

Search period start: 12 August 2022 00:00
Search period end: 22 August 2022 00:00
Orbit: 532 x 535 km, 28.5° (Epoch: 12 August)

Date Brightness Start Highest point End Pass type
(mag) Time Alt. Az. Time Alt. Az. Time Alt. Az.
12 Aug 2.0 21:19:26 10° WSW 21:22:54 26° SSW 21:23:22 26° S visible
13 Aug 2.2 21:07:28 10° WSW 21:10:47 23° SSW 21:11:52 21° S visible
14 Aug 2.5 20:55:33 10° WSW 20:58:40 21° SSW 21:00:22 16° SSE visible
15 Aug 2.7 20:43:43 10° WSW 20:46:31 18° SSW 20:48:53 12° SSE visible
16 Aug 3.0 20:31:58 10° WSW 20:34:22 15° SSW 20:36:46 10° SSE visible
17 Aug 3.2 20:20:24 10° SW 20:22:12 13° SSW 20:23:59 10° S visible
18 Aug 3.4 20:09:39 10° SSW 20:10:02 10° SSW 20:10:24 10° SSW visible
